Time,TemperatureF,DewpointF,PressureIn,WindDirection,WindDirectionDegrees,WindSpeedMPH,WindSpeedGustMPH,Humidity,HourlyPrecipIn,Conditions,Clouds,dailyrainin,SoftwareType,DateUTC
2013-07-08 00:01:00,72.0,72.0,29.98,North,-999,-999.0,-999.0,100,-99.99,,,-99.99,,2013-07-08 05:01:00,
2013-07-08 00:22:00,73.0,73.0,29.97,North,350,6.0,-999.0,100,-99.99,,,-99.99,,2013-07-08 05:22:00,
2013-07-08 00:33:00,73.0,73.0,29.96,North,360,8.0,-999.0,100,-99.99,,,-99.99,,2013-07-08 05:33:00,
2013-07-08 00:43:00,73.0,73.0,29.96,North,360,8.0,-999.0,100,-99.99,,,-99.99,,2013-07-08 05:43:00,
2013-07-08 01:01:00,73.0,73.0,29.98,North,360,7.0,-999.0,100,-99.99,,,-99.99,,2013-07-08 06:01:00,
2013-07-08 01:11:00,73.0,73.0,29.98,North,10,7.0,-999.0,100,-99.99,,,-99.99,,2013-07-08 06:11:00,
2013-07-08 01:22:00,73.0,73.0,29.98,North,10,7.0,-999.0,100,-99.99,,,-99.99,,2013-07-08 06:22:00,
2013-07-08 01:43:00,73.0,73.0,29.98,North,360,5.0,-999.0,100,-99.99,,,-99.99,,2013-07-08 06:43:00,
2013-07-08 01:53:00,72.0,72.0,29.99,North,0,0.0,-999.0,100,-99.99,,,-99.99,,2013-07-08 06:53:00,
2013-07-08 02:02:00,72.0,72.0,29.99,North,0,0.0,-999.0,100,-99.99,,,-99.99,,2013-07-08 07:02:00,
2013-07-08 02:22:00,72.0,72.0,29.99,North,0,0.0,-999.0,100,-99.99,,,-99.99,,2013-07-08 07:22:00,
2013-07-08 02:34:00,72.0,72.0,29.98,North,360,5.0,-999.0,100,-99.99,,,-99.99,,2013-07-08 07:34:00,
2013-07-08 02:44:00,72.0,72.0,29.98,North,360,5.0,-999.0,100,-99.99,,,-99.99,,2013-07-08 07:44:00,
2013-07-08 03:02:00,72.0,72.0,29.98,North,360,7.0,-999.0,100,-99.99,,,-99.99,,2013-07-08 08:02:00,
2013-07-08 03:22:00,70.0,70.0,29.98,North,360,5.0,-999.0,100,-99.99,,,-99.99,,2013-07-08 08:22:00,
2013-07-08 03:42:00,70.0,70.0,29.98,North,360,5.0,-999.0,100,-99.99,,,-99.99,,2013-07-08 08:42:00,
2013-07-08 04:01:00,70.0,70.0,29.97,North,360,6.0,-999.0,100,-99.99,,,-99.99,,2013-07-08 09:01:00,
2013-07-08 04:22:00,70.0,68.0,29.97,North,360,6.0,-999.0,94,-99.99,,,-99.99,,2013-07-08 09:22:00,
2013-07-08 04:43:00,70.0,66.0,29.96,North,360,7.0,-999.0,88,-99.99,,,-99.99,,2013-07-08 09:43:00,
2013-07-08 05:02:00,70.0,66.0,29.96,North,360,6.0,-999.0,88,-99.99,,,-99.99,,2013-07-08 10:02:00,
2013-07-08 05:22:00,68.0,68.0,29.97,North,360,5.0,-999.0,100,-99.99,,,-99.99,,2013-07-08 10:22:00,
2013-07-08 05:34:00,66.0,66.0,29.97,North,360,6.0,-999.0,100,-99.99,,,-99.99,,2013-07-08 10:34:00,
2013-07-08 05:43:00,66.0,66.0,29.97,North,360,6.0,-999.0,100,-99.99,,,-99.99,,2013-07-08 10:43:00,
2013-07-08 06:02:00,66.0,66.0,29.96,North,360,7.0,-999.0,100,-99.99,,,-99.99,,2013-07-08 11:02:00,
2013-07-08 06:22:00,66.0,66.0,29.97,North,360,7.0,-999.0,100,-99.99,,,-99.99,,2013-07-08 11:22:00,
2013-07-08 06:33:00,66.0,66.0,29.98,North,360,5.0,-999.0,100,-99.99,,,-99.99,,2013-07-08 11:33:00,
2013-07-08 06:43:00,66.0,66.0,29.98,North,360,5.0,-999.0,100,-99.99,,,-99.99,,2013-07-08 11:43:00,
2013-07-08 07:01:00,66.0,66.0,29.98,North,360,5.0,-999.0,100,-99.99,,,-99.99,,2013-07-08 12:01:00,
2013-07-08 07:22:00,68.0,68.0,29.98,North,360,6.0,-999.0,100,-99.99,,,-99.99,,2013-07-08 12:22:00,
2013-07-08 07:34:00,70.0,70.0,29.99,North,360,6.0,-999.0,100,-99.99,,,-99.99,,2013-07-08 12:34:00,
2013-07-08 07:43:00,70.0,70.0,29.99,North,360,6.0,-999.0,100,-99.99,,,-99.99,,2013-07-08 12:43:00,
2013-07-08 08:02:00,72.0,72.0,30.00,North,10,6.0,-999.0,100,-99.99,,,-99.99,,2013-07-08 13:02:00,
2013-07-08 08:22:00,72.0,72.0,30.01,NNE,20,5.0,-999.0,100,-99.99,,,-99.99,,2013-07-08 13:22:00,
2013-07-08 08:33:00,72.0,72.0,30.01,NE,40,7.0,-999.0,100,-99.99,,,-99.99,,2013-07-08 13:33:00,
2013-07-08 08:42:00,72.0,72.0,30.01,NE,40,7.0,-999.0,100,-99.99,,,-99.99,,2013-07-08 13:42:00,
2013-07-08 09:02:00,73.0,73.0,30.01,ENE,60,8.0,-999.0,100,-99.99,,,-99.99,,2013-07-08 14:02:00,
2013-07-08 09:22:00,73.0,73.0,30.01,East,80,7.0,-999.0,100,-99.99,,,-99.99,,2013-07-08 14:22:00,
2013-07-08 09:43:00,75.0,75.0,30.02,East,80,8.0,-999.0,100,-99.99,,,-99.99,,2013-07-08 14:43:00,
2013-07-08 10:02:00,75.0,75.0,30.02,ENE,60,7.0,-999.0,100,-99.99,,,-99.99,,2013-07-08 15:02:00,
2013-07-08 10:22:00,77.0,75.0,30.02,ENE,70,9.0,-999.0,94,-99.99,,,-99.99,,2013-07-08 15:22:00,
2013-07-08 11:01:00,79.0,79.0,30.02,East,100,7.0,-999.0,100,-99.99,,,-99.99,,2013-07-08 16:01:00,
2013-07-08 11:22:00,79.0,79.0,30.02,ENE,70,8.0,-999.0,100,-99.99,,,-99.99,,2013-07-08 16:22:00,
2013-07-08 11:43:00,81.0,79.0,30.02,East,80,7.0,-999.0,94,-99.99,,,-99.99,,2013-07-08 16:43:00,
2013-07-08 12:07:00,81.0,81.0,30.02,East,90,6.0,-999.0,100,-99.99,,,-99.99,,2013-07-08 17:07:00,
2013-07-08 12:13:00,81.0,79.0,30.02,East,90,7.0,-999.0,94,-99.99,,,-99.99,,2013-07-08 17:13:00,
2013-07-08 12:26:00,81.0,79.0,30.02,East,90,7.0,-999.0,94,-99.99,,,-99.99,,2013-07-08 17:26:00,
2013-07-08 12:45:00,82.0,81.0,30.02,ENE,60,7.0,-999.0,94,-99.99,,,-99.99,,2013-07-08 17:45:00,
2013-07-08 12:54:00,82.0,77.0,30.02,ENE,70,6.0,-999.0,83,-99.99,,,-99.99,,2013-07-08 17:54:00,
2013-07-08 13:30:00,84.0,79.0,30.02,East,80,7.0,-999.0,83,-99.99,,,-99.99,,2013-07-08 18:30:00,
2013-07-08 13:48:00,84.0,75.0,30.01,ENE,70,6.0,-999.0,74,-99.99,,,-99.99,,2013-07-08 18:48:00,
2013-07-08 13:56:00,84.0,77.0,30.01,East,80,6.0,-999.0,79,-99.99,,,-99.99,,2013-07-08 18:56:00,
2013-07-08 14:10:00,84.0,77.0,30.01,East,80,6.0,-999.0,79,-99.99,,,-99.99,,2013-07-08 19:10:00,
2013-07-08 14:18:00,86.0,75.0,30.01,East,90,5.0,-999.0,70,-99.99,,,-99.99,,2013-07-08 19:18:00,
2013-07-08 14:29:00,86.0,75.0,30.01,East,90,5.0,-999.0,70,-99.99,,,-99.99,,2013-07-08 19:29:00,
2013-07-08 14:56:00,88.0,77.0,30.00,East,100,6.0,-999.0,70,-99.99,,,-99.99,,2013-07-08 19:56:00,
2013-07-08 15:39:00,88.0,75.0,29.99,ESE,110,8.0,-999.0,66,-99.99,,,-99.99,,2013-07-08 20:39:00,
2013-07-08 15:57:00,88.0,75.0,29.99,North,0,0.0,-999.0,66,-99.99,,,-99.99,,2013-07-08 20:57:00,
2013-07-08 16:10:00,88.0,75.0,29.99,North,0,0.0,-999.0,66,-99.99,,,-99.99,,2013-07-08 21:10:00,
2013-07-08 16:30:00,88.0,75.0,29.99,North,0,0.0,-999.0,66,-99.99,,,-99.99,,2013-07-08 21:30:00,
2013-07-08 17:20:00,88.0,73.0,29.98,SE,130,7.0,-999.0,62,-99.99,,,-99.99,,2013-07-08 22:20:00,
2013-07-08 17:29:00,88.0,73.0,29.98,SE,130,7.0,-999.0,62,-99.99,,,-99.99,,2013-07-08 22:29:00,
2013-07-08 17:51:00,90.0,73.0,29.97,ESE,120,7.0,-999.0,59,-99.99,,,-99.99,,2013-07-08 22:51:00,
2013-07-08 18:11:00,90.0,73.0,29.97,ESE,120,10.0,15.0,59,-99.99,,,-99.99,,2013-07-08 23:11:00,
2013-07-08 18:30:00,90.0,75.0,29.97,ESE,110,5.0,-999.0,62,-99.99,,,-99.99,,2013-07-08 23:30:00,
2013-07-08 18:40:00,88.0,73.0,29.97,ESE,120,7.0,-999.0,62,-99.99,,,-99.99,,2013-07-08 23:40:00,
2013-07-08 18:50:00,88.0,73.0,29.97,ESE,120,7.0,-999.0,62,-99.99,,,-99.99,,2013-07-08 23:50:00,
2013-07-08 19:30:00,88.0,73.0,29.96,ESE,110,6.0,-999.0,62,-99.99,,,-99.99,,2013-07-09 00:30:00,
2013-07-08 21:22:00,-999.0,-99.9,29.95,North,0,0.0,-999.0,79,-99.99,,,-99.99,,2013-07-09 02:22:00,
2013-07-08 21:28:00,84.0,77.0,29.95,North,0,0.0,-999.0,79,-99.99,,,-99.99,,2013-07-09 02:28:00,
2013-07-08 21:41:00,82.0,79.0,29.95,North,0,0.0,-999.0,88,-99.99,,,-99.99,,2013-07-09 02:41:00,
2013-07-08 22:10:00,81.0,77.0,29.96,North,0,0.0,-999.0,88,-99.99,,,-99.99,,2013-07-09 03:10:00,
2013-07-08 22:30:00,81.0,79.0,29.96,North,0,0.0,-999.0,94,-99.99,,,-99.99,,2013-07-09 03:30:00,
2013-07-08 22:50:00,81.0,79.0,29.96,North,0,0.0,-999.0,94,-99.99,,,-99.99,,2013-07-09 03:50:00,
2013-07-08 23:02:00,81.0,79.0,29.95,North,0,0.0,-999.0,94,-99.99,,,-99.99,,2013-07-09 04:02:00,
2013-07-08 23:22:00,79.0,79.0,29.94,North,0,0.0,-999.0,100,-99.99,,,-99.99,,2013-07-09 04:22:00,
2013-07-08 23:42:00,79.0,75.0,29.93,North,0,0.0,-999.0,88,-99.99,,,-99.99,,2013-07-09 04:42:00,
2013-07-08 23:53:00,79.0,75.0,29.93,North,0,0.0,-999.0,88,-99.99,,,-99.99,,2013-07-09 04:53:00,